Simultaneous Nadir Overpasses (SNOs) Predictions

Prediction of SNOs between METOP-C and LANDSAT-8 Satellite Orbit:

Table of predicted SNOs for the next 14.0 days since TLE Epoch: 11/16/2024
Index Date (METOP-C) Time (METOP-C) Lat,Lon (METOP-C) SZA (METOP-C ) Date (LANDSAT-8) Time (LANDSAT-8) Lat,Lon (LANDSAT-8) SZA (LANDSAT-8 ) Distance(km) Time Diff (sec)
1 11/18/2024 14:12:38 81.10, 6.32 102.80 11/18/2024 14:13:12 81.10, 6.25 102.81 1.23 34
2 11/18/2024 15:03:18 -81.12, 174.20 77.12 11/18/2024 15:02:38 -81.12, 174.24 77.14 0.81 40
3 11/21/2024 09:47:02 81.11, 72.94 103.44 11/21/2024 09:47:30 81.11, 72.88 103.45 0.94 28
4 11/21/2024 10:37:42 -81.13,-119.16 76.48 11/21/2024 10:36:56 -81.14,-119.10 76.49 1.20 46
5 11/24/2024 05:21:27 81.10, 139.04 103.97 11/24/2024 05:21:48 81.10, 139.17 103.99 2.25 21
6 11/24/2024 06:12:06 -81.14, -52.67 75.91 11/24/2024 06:11:14 -81.13, -52.79 75.95 2.26 52
7 11/27/2024 00:55:50 81.11,-154.24 104.52 11/27/2024 00:56:04 81.12,-154.15 104.54 1.70 14
8 11/27/2024 01:46:28 -81.15, 14.06 75.36 11/27/2024 01:45:29 -81.15, 13.90 75.40 2.80 59
9 11/29/2024 20:30:12 81.12, -87.66 104.99 11/29/2024 20:30:19 81.11, -87.82 104.97 2.76 7



Historial Predications of SNOs between METOP-C and LANDSAT-8
